Вернуться в каталог

STARLINK-36302

АктивенСвязьVLEO
NORAD 68524·PAYLOAD·🇺🇸 United States

Запущен Mar 30, 2026 с Cape Canaveral Space Force Station

Loading…

Ближайшие Пролёты (ближайшие 24 часа)

TLE

СвежийSource: CelesTrak SupGP

Эпоха: Sep 14, 2026, 22:45 UTC

1 68524C 26068S   26257.94840278  .00017254  00000+0  51002-3 0  2577
2 68524  53.1585 325.6934 0001240  83.4665 310.0399 15.34366793    18

Отслеживайте STARLINK-36302 в реальном времени с AllMySat

Download on the App Store